GPS BIIF-4 (39166 NORAD) Tracking and Keplerian Element Data

This shows tracking and keplerian element data for the satellite.

Feedback or suggestion? Click here.




ElementValue
Catalog39166
NameGPS BIIF-4
Epoch Orbit8587
Epoch Day34.10584453
Epoch Year2025
RAAN289.2539
Inclination54.9117
Eccentricity0.0131478
Argument of Perigee46.0985
Mean Anonmoly315.0417
Mean Motion2.00561915
Decay Rate-2.2E-07
L11 39166U 13023A 25034.10584453 -.00000022 00000+0 00000+0 0 9991
L22 39166 54.9117 289.2539 0131478 46.0985 315.0417 2.00561915 85876



Live tracking and technical data element details for GPS BIIF-4 (NORAD 39166). GPS BIIF-4 can be tracked NOW for your location showing map with azimuth and elevation plus other details from your city location.







IsCatalogInMostPopularTable: catalog: 39166, numindb: 551
Update: records affected: 1



GetName: 39166 GPS BIIF-4

Hit Count: updated at: Fri, 16 May 2025 11:01:24 GMT